Location: *
(51.0333°S, 178.4667°E)
Time: 20:38:25
(UTC+00:00)

Cosmos 405 Rocket - Pass Details

Date: 15 November 2019
Orbit: 489 x 556 km, 81.3° (Epoch: 08 December)

Event Time Altitude Azimuth Distance (km) Brightness Sun altitude
Exits shadow 11:02:25 19° 88° (E) 1,245 4.5 -19.7°
Maximum altitude 11:02:34 19° 91° (E) 1,244 4.5 -19.7°
Drops below altitude 10° 11:05:20 10° 138° (SE) 1,742 5.8 -19.8°
Sets 11:07:55 0° 155° (SSE) 2,648 7.2 -19.9°
